This is the latest recevied weather packets stored in our database for station/object N5LSN. If no packets are shown the sender has not sent any weather packets the latest 10 day(s).
| Time | Temp. | Humidity | Pressure | Rain* | Wind** | Luminosity | Snow |
|---|---|---|---|---|---|---|---|
| 1777898519 | 13.89° C | 89% | 1014.9 hPa | 0 mm | - | 58 W/m² | - |
| 1777898217 | 13.89° C | 89% | 1014.8 hPa | 0 mm | - | 53 W/m² | - |
| 1777897914 | 13.33° C | 90% | 1014.3 hPa | 0 mm | - | 55 W/m² | - |
| 1777897610 | 13.33° C | 91% | 1014.5 hPa | 0 mm | - | 52 W/m² | - |
| 1777897305 | 12.78° C | 90% | 1014.4 hPa | 0 mm | - | 50 W/m² | - |
| 1777897002 | 12.78° C | 92% | 1014.4 hPa | 0 mm | - | 46 W/m² | - |
| 1777896699 | 12.22° C | 93% | 1014.4 hPa | 0 mm | - | 41 W/m² | - |
| 1777896396 | 12.22° C | 94% | 1014.5 hPa | 0 mm | - | 40 W/m² | - |
| 1777896094 | 12.22° C | 93% | 1014.5 hPa | 0 mm | - | 36 W/m² | - |
| 1777895792 | 12.22° C | 93% | 1014.2 hPa | 0 mm | - | 31 W/m² | - |
| 1777895488 | 12.22° C | 93% | 1014.2 hPa | 0 mm | - | 28 W/m² | - |
| 1777895186 | 12.22° C | 92% | 1014.3 hPa | 0 mm | - | 26 W/m² | - |
| 1777894883 | 12.78° C | 92% | 1014.4 hPa | 0 mm | - | 22 W/m² | - |
| 1777894581 | 12.78° C | 92% | 1014.3 hPa | 0 mm | - | 17 W/m² | - |
| 1777894278 | 12.78° C | 92% | 1014.3 hPa | 0 mm | - | 10 W/m² | - |
| 1777893974 | 12.22° C | 92% | 1014.1 hPa | 0 mm | - | 5 W/m² | - |
| 1777893671 | 12.78° C | 92% | 1014 hPa | 0 mm | - | 3 W/m² | - |
| 1777893367 | 12.22° C | 93% | 1013.9 hPa | 0 mm | - | 2 W/m² | - |
| 1777893063 | 11.67° C | 95% | 1014 hPa | 0 mm | - | 1 W/m² | - |
| 1777892761 | 11.67° C | 95% | 1014 hPa | 0 mm | - | 0 W/m² | - |
| 1777892456 | 11.67° C | 95% | 1014 hPa | 0 mm | - | 0 W/m² | - |
| 1777892152 | 11.67° C | 95% | 1014 hPa | 0 mm | - | 0 W/m² | - |
| 1777891849 | 12.22° C | 95% | 1014.2 hPa | 0 mm | - | 0 W/m² | - |
| 1777891546 | 11.67° C | 96% | 1014 hPa | 0 mm | - | 0 W/m² | - |
| 1777891243 | 11.67° C | 96% | 1014.1 hPa | 0 mm | - | 0 W/m² | - |
* Rain latest hour (hover to see other rain measurements)
** Current wind speed in m/s (hover to see current wind gust speed)